ABS-3A

Last updated on Tue Sep 22 2026 00:03:13 GMT+0000 (Coordinated Universal Time)

1 40424U 15010A 26264.27465639 -.00000030 00000+0 00000+0 0 9995 2 40424 0.0043 172.9298 0001936 316.3821 326.7256 1.00274970 42337
UTC large
Height (km)
Speed (km/s)
/
Latitude / Longitude
Inclination (degrees)
Orbital Period (minutes)
Azimuth
Elevation
Range (km)
Doppler Factor

Next 0 passes for location: London (51.5072 / 0.1276)

No passes found over London.
ABS-3A